Regional Weather Roundup
Issued by NWS

Home | Current Version | Previous Version | Graphics & Text | Print | Product List | Glossary Off
Versions: 1 2 3 4 5 6 7 8 9 10 11 12 13 14 15 16 17 18 19 20 21 22 23 24 25 26 27 28 29 30 31 32 33 34 35 36 37 38 39 40 41 42 43 44 45 46 47 48 49 50

311
ASUS43 KTOP 220008
RWRKS

WEATHER ROUNDUP FOR KANSAS
NATIONAL WEATHER SERVICE GOODLAND KS
600 PM CST TUE FEB 21 2017

NOTE:  "FAIR" INDICATES FEW OR NO CLOUDS BELOW 12,000 FEET WITH NO
SIGNIFICANT WEATHER AND/OR OBSTRUCTIONS TO VISIBILITY.

KSZ001>006-013>018-027>032-041>047-220100-
NORTHWEST KANSAS

CITY           SKY/WX    TMP DP  RH WIND       PRES   REMARKS
GOODLAND       CLEAR     73  18  12 W3        29.90F
6HR MIN TEMP:  71; 6HR MAX TEMP:  78;

HAYS             N/A     71  28  20 S8        29.88S
HILL CITY      CLEAR     75  25  15 SW5       29.87S
6HR MIN TEMP:  68; 6HR MAX TEMP:  81;

RUSSELL        CLEAR     71  26  18 SW6       29.86F
6HR MIN TEMP:  67; 6HR MAX TEMP:  77;

$$

KSZ061>065-074>080-084>089-220100-
SOUTHWEST KANSAS

CITY           SKY/WX    TMP DP  RH WIND       PRES   REMARKS
DODGE CITY     CLEAR     71  21  15 S7        29.92R
6HR MIN TEMP:  67; 6HR MAX TEMP:  78;

ELKHART          N/A     72  28  19 E3          N/A
GARDEN CITY    CLEAR     74  21  13 CALM      29.93S
6HR MIN TEMP:  69; 6HR MAX TEMP:  79;

GREAT BEND     CLEAR     70  25  18 SW6       29.90R
LIBERAL        CLEAR     73  21  14 NW5       29.96S
PRATT          CLEAR     64  28  25 S7        29.92S
6HR MIN TEMP:  64; 6HR MAX TEMP:  74;

$$

KSZ066>073-081>083-090>101-220100-
SOUTHEAST KANSAS

CITY           SKY/WX    TMP DP  RH WIND       PRES   REMARKS
CHANUTE        CLEAR     68  43  40 NW6       29.90S
6HR MIN TEMP:  66; 6HR MAX TEMP:  74;

COFFEYVILLE    CLEAR     67  47  48 N5        29.89S
6HR MIN TEMP:  65; 6HR MAX TEMP:  74;

HUTCHINSON     CLEAR     65  36  34 SE9       29.90S
6HR MIN TEMP:  64; 6HR MAX TEMP:  74;

MEDICINE LODGE   N/A     67  38  34 SE7       29.92R
NEWTON         CLEAR     61  43  51 S6        29.92F
PARSONS        CLEAR     68  45  43 CALM      29.90S
6HR MIN TEMP:  64; 6HR MAX TEMP:  74;

WICHITA INTL   PTCLDY    63  38  39 S6        29.91F
6HR MIN TEMP:  62; 6HR MAX TEMP:  71;

WICHITA JABRA  CLEAR     64  41  42 SE3       29.91S
6HR MIN TEMP:  62; 6HR MAX TEMP:  71;

WICHITA MCCONL CLEAR     65  32  29 SW7       29.91F
WINFIELD       CLEAR     63  43  48 W5        29.94R
6HR MIN TEMP:  63; 6HR MAX TEMP:  71;

$$

KSZ007>012-019>026-033>040-048>060-102>105-220100-
NORTHEAST KANSAS

CITY           SKY/WX    TMP DP  RH WIND       PRES   REMARKS
CONCORDIA      CLEAR     66  27  23 S9        29.85F
6HR MIN TEMP:  65; 6HR MAX TEMP:  75;

EMPORIA        CLEAR     66  28  24 CALM      29.90S
6HR MIN TEMP:  62; 6HR MAX TEMP:  70;

LAWRENCE       CLEAR     66  28  24 CALM      29.89F
6HR MIN TEMP:  66; 6HR MAX TEMP:  72;

MANHATTAN      CLEAR     62  36  37 SW5       29.88F
6HR MIN TEMP:  61; 6HR MAX TEMP:  71;

MARYSVILLE     CLEAR     64  36  34 S8        29.87S
OLATHE IND     CLEAR     64  36  35 NW5       29.91S
6HR MIN TEMP:  63; 6HR MAX TEMP:  71;

OLATHE EXE     CLEAR     68  37  32 N3        29.90S
6HR MIN TEMP:  64; 6HR MAX TEMP:  71;

SALINA         CLEAR     67  31  26 S8        29.87F
6HR MIN TEMP:  66; 6HR MAX TEMP:  78;

TOPEKA BILLARD CLEAR     66  26  22 CALM      29.89S
6HR MIN TEMP:  61; 6HR MAX TEMP:  70;

TOPEKA FORBES  CLEAR     66  32  28 CALM      29.90S
6HR MIN TEMP:  63; 6HR MAX TEMP:  72;

$$




USA.gov is the U.S. government's official web portal to all federal, state and local government web resources and services.